Regional Weather Roundup
Issued by NWS Cleveland, OH

Home | Current Version | Previous Version | Text Only | Print | Product List | Glossary Off
Versions: 1 2 3 4 5 6 7 8 9 10 11 12 13 14 15 16 17 18 19 20 21 22 23 24 25 26 27 28 29 30 31 32 33 34 35 36 37 38 39 40 41 42 43 44 45 46 47 48 49 50

000
ASUS41 KCLE 200410
RWRCLE
OHIO REGIONAL WEATHER ROUNDUP
NATIONAL WEATHER SERVICE WILMINGTON, OH
1200 AM EDT WED SEP 20 2017

NOTE: "FAIR" INDICATES FEW OR NO CLOUDS BELOW 12,000 FEET WITH NO
SIGNIFICANT WEATHER AND/OR OBSTRUCTIONS TO VISIBILITY.

OHZ001>008-015>018-024>027-034-035-043-044-200500-
   NORTHWEST OHIO

CITY           SKY/WX    TMP DP  RH WIND       PRES   REMARKS
DEFIANCE       MOCLDY    68  67  96 CALM      29.95R FOG
FINDLAY        FAIR      68  64  87 S3        29.95F
TOLEDO EXPRESS CLOUDY    67  32  27 CALM      29.95S FOG
TOLEDO EXEC    FAIR      68  66  93 E5        29.96S FOG
LIMA           RAIN      68  67  96 S7        29.97S FOG
$$

OHZ009>014-019>023-028>033-038-089-200500-
   NORTHEAST OHIO

CITY           SKY/WX    TMP DP  RH WIND       PRES   REMARKS
CLE-HOPKINS    MOCLDY    73  65  75 SE7       29.99S
CLE-LAKEFRONT  FAIR      73  63  70 S6        29.96S
CUY CO. ARPT   NOT AVBL
LORAIN-ELYRIA  FAIR      66  61  84 SE5       29.98S HAZE
ASHTABULA      FAIR      64  64 100 CALM      29.99F FOG
AKRON-CANTON   MOCLDY    70  63  78 E3        29.99S
WOOSTER        MOCLDY    66  64  93 CALM      30.00R
MANSFIELD      MOCLDY    66  64  93 CALM      30.00R
YOUNGSTOWN     CLOUDY    68  66  93 CALM      29.99S
$$

OHZ042-051>053-060>062-070>072-077>081-200500-
  SOUTHWEST OHIO

CITY           SKY/WX    TMP DP  RH WIND       PRES   REMARKS
CINC-COVINGTON FAIR      64  64 100 CALM      29.97S
CINC-LUNKEN    FOG       66  66 100 CALM      29.98R VSB 3/4
HAMILTON       FAIR      64  64 100 CALM      29.98R FOG
DAYTON         MOCLDY    68  64  87 S5        29.99R
WRIGHT-PAT AFB FAIR      67  67 100 CALM      29.98R
DAYTON GENERAL FAIR      68  64  87 CALM      29.98R
WILMINGTON     FAIR      66  66 100 SE3       29.98S
$$

OHZ036-037-039>041-045>050-054>059-063>069-073>076-082>088-200500-
  CENTRAL AND SOUTHEAST OHIO

CITY           SKY/WX    TMP DP  RH WIND       PRES   REMARKS
COLUMBUS       LGT RAIN  72  67  84 CALM      29.97S
OSU AIRPORT    CLOUDY    71  68  90 SE5       29.97S
BOLTON FIELD   FAIR      68  67  95 CALM      29.98S
RICKENBACK AFB CLOUDY    67  67  99 CALM      29.97S
NEWARK         MOCLDY    66  65  96 CALM      29.98S FOG
MARION         MOCLDY    67  62  84 SE6       29.98S
LANCASTER      FAIR      65  64  97 CALM      29.98S
ZANESVILLE     CLOUDY    69  66  90 CALM      29.98S
NEW PHILLY     FAIR      69  67  93 CALM      29.98F
$$




USA.gov is the U.S. government's official web portal to all federal, state and local government web resources and services.